Time,TemperatureF,DewpointF,PressureIn,WindDirection,WindDirectionDegrees,WindSpeedMPH,WindSpeedGustMPH,Humidity,HourlyPrecipIn,Conditions,Clouds,dailyrainin,SoftwareType,DateUTC
2013-07-04 00:11:00,73.0,70.0,30.22,SSW,211,0.0,0.0,90,0.00,,,0.00,weatherlink.com 1.10,2013-07-04 04:11:00,
2013-07-04 00:27:00,72.9,70.0,30.22,SSW,212,0.0,0.0,90,0.00,,,0.00,weatherlink.com 1.10,2013-07-04 04:27:00,
2013-07-04 00:42:00,72.9,70.0,30.22,SSW,212,0.0,0.0,90,0.00,,,0.00,weatherlink.com 1.10,2013-07-04 04:42:00,
2013-07-04 00:57:00,73.1,70.0,30.22,SSW,211,0.0,0.0,90,0.00,,,0.00,weatherlink.com 1.10,2013-07-04 04:57:00,
2013-07-04 01:14:00,73.2,71.0,30.21,SSW,212,0.0,0.0,91,0.00,,,0.00,weatherlink.com 1.10,2013-07-04 05:14:00,
2013-07-04 01:28:00,73.4,71.0,30.21,SSW,211,0.0,1.0,91,0.00,,,0.00,weatherlink.com 1.10,2013-07-04 05:28:00,
2013-07-04 01:43:00,73.5,71.0,30.21,SSW,212,0.0,1.0,91,0.00,,,0.00,weatherlink.com 1.10,2013-07-04 05:43:00,
2013-07-04 02:00:00,73.7,71.0,30.21,WSW,246,0.0,1.0,91,0.00,,,0.00,weatherlink.com 1.10,2013-07-04 06:00:00,
2013-07-04 02:15:00,73.6,71.0,30.20,WSW,242,0.0,1.0,91,0.00,,,0.00,weatherlink.com 1.10,2013-07-04 06:15:00,
2013-07-04 02:30:00,73.5,71.0,30.20,SW,226,0.0,1.0,91,0.00,,,0.00,weatherlink.com 1.10,2013-07-04 06:30:00,
2013-07-04 02:45:00,73.5,71.0,30.20,SW,226,0.0,1.0,91,0.00,,,0.00,weatherlink.com 1.10,2013-07-04 06:45:00,
2013-07-04 03:00:00,73.6,71.0,30.20,West,279,0.0,1.0,91,0.00,,,0.00,weatherlink.com 1.10,2013-07-04 07:00:00,
2013-07-04 03:17:00,73.7,71.0,30.20,NNW,344,0.0,4.0,91,0.00,,,0.00,weatherlink.com 1.10,2013-07-04 07:17:00,
2013-07-04 03:32:00,73.7,71.0,30.20,WNW,288,0.0,1.0,91,0.00,,,0.00,weatherlink.com 1.10,2013-07-04 07:32:00,
2013-07-04 03:47:00,73.7,71.0,30.20,SSW,203,0.0,1.0,91,0.00,,,0.00,weatherlink.com 1.10,2013-07-04 07:47:00,
2013-07-04 04:02:00,73.7,71.0,30.20,SSW,204,0.0,1.0,91,0.00,,,0.00,weatherlink.com 1.10,2013-07-04 08:02:00,
2013-07-04 04:17:00,73.8,71.0,30.20,SSW,204,0.0,1.0,91,0.00,,,0.00,weatherlink.com 1.10,2013-07-04 08:17:00,
2013-07-04 04:32:00,73.7,71.0,30.20,North,5,0.0,1.0,91,0.00,,,0.00,weatherlink.com 1.10,2013-07-04 08:32:00,
2013-07-04 04:48:00,73.7,71.0,30.21,North,5,0.0,1.0,91,0.00,,,0.00,weatherlink.com 1.10,2013-07-04 08:48:00,
2013-07-04 05:03:00,73.7,71.0,30.21,North,360,0.0,1.0,91,0.00,,,0.00,weatherlink.com 1.10,2013-07-04 09:03:00,
2013-07-04 05:18:00,73.7,71.0,30.21,WSW,250,0.0,1.0,91,0.00,,,0.00,weatherlink.com 1.10,2013-07-04 09:18:00,
2013-07-04 05:33:00,73.6,71.0,30.21,WSW,250,0.0,1.0,91,0.00,,,0.00,weatherlink.com 1.10,2013-07-04 09:33:00,
2013-07-04 05:49:00,73.5,71.0,30.21,WSW,250,0.0,1.0,91,0.00,,,0.00,weatherlink.com 1.10,2013-07-04 09:49:00,
2013-07-04 06:07:00,73.6,71.0,30.22,WSW,249,0.0,1.0,91,0.00,,,0.00,weatherlink.com 1.10,2013-07-04 10:07:00,
2013-07-04 06:20:00,73.7,71.0,30.22,WSW,256,0.0,2.0,91,0.00,,,0.00,weatherlink.com 1.10,2013-07-04 10:20:00,
2013-07-04 06:35:00,73.9,71.0,30.23,South,177,0.0,1.0,91,0.00,,,0.00,weatherlink.com 1.10,2013-07-04 10:35:00,
2013-07-04 06:50:00,74.0,71.0,30.23,South,178,0.0,1.0,90,0.00,,,0.00,weatherlink.com 1.10,2013-07-04 10:50:00,
2013-07-04 07:05:00,74.1,71.0,30.23,WNW,288,0.0,1.0,90,0.00,,,0.00,weatherlink.com 1.10,2013-07-04 11:05:00,
2013-07-04 07:22:00,74.3,71.0,30.24,SW,228,0.0,1.0,89,0.00,,,0.00,weatherlink.com 1.10,2013-07-04 11:22:00,
2013-07-04 07:37:00,74.6,71.0,30.24,SSW,200,0.0,2.0,88,0.00,,,0.00,weatherlink.com 1.10,2013-07-04 11:37:00,
2013-07-04 07:52:00,75.0,71.0,30.24,SSW,195,0.0,2.0,88,0.00,,,0.00,weatherlink.com 1.10,2013-07-04 11:52:00,
2013-07-04 08:07:00,75.5,71.0,30.24,East,83,1.0,2.0,87,0.00,,,0.00,weatherlink.com 1.10,2013-07-04 12:07:00,
2013-07-04 08:23:00,76.3,72.0,30.24,NW,318,0.0,2.0,86,0.00,,,0.00,weatherlink.com 1.10,2013-07-04 12:23:00,
2013-07-04 08:38:00,77.1,72.0,30.24,West,259,0.0,3.0,84,0.00,,,0.00,weatherlink.com 1.10,2013-07-04 12:38:00,
2013-07-04 08:54:00,77.5,71.0,30.24,SW,220,0.0,4.0,81,0.00,,,0.00,weatherlink.com 1.10,2013-07-04 12:54:00,
2013-07-04 09:08:00,78.0,72.0,30.24,WNW,290,0.0,2.0,81,0.00,,,0.00,weatherlink.com 1.10,2013-07-04 13:08:00,
2013-07-04 09:24:00,78.8,72.0,30.24,NNW,337,0.0,2.0,80,0.00,,,0.00,weatherlink.com 1.10,2013-07-04 13:24:00,
2013-07-04 09:40:00,81.1,74.0,30.24,NNW,338,0.0,2.0,78,0.00,,,0.00,weatherlink.com 1.10,2013-07-04 13:40:00,
2013-07-04 09:55:00,81.8,73.0,30.23,West,274,0.0,2.0,75,0.00,,,0.00,weatherlink.com 1.10,2013-07-04 13:55:00,
2013-07-04 10:10:00,82.1,73.0,30.23,NW,317,0.0,1.0,74,0.00,,,0.00,weatherlink.com 1.10,2013-07-04 14:10:00,
2013-07-04 10:25:00,83.0,73.0,30.23,SSW,199,0.0,2.0,72,0.00,,,0.00,weatherlink.com 1.10,2013-07-04 14:25:00,
2013-07-04 10:40:00,83.9,74.0,30.23,South,176,0.0,4.0,71,0.00,,,0.00,weatherlink.com 1.10,2013-07-04 14:40:00,
2013-07-04 10:57:00,85.3,74.0,30.23,NNE,20,0.0,1.0,69,0.00,,,0.00,weatherlink.com 1.10,2013-07-04 14:57:00,
2013-07-04 11:12:00,85.3,74.0,30.23,WNW,284,0.0,3.0,68,0.00,,,0.00,weatherlink.com 1.10,2013-07-04 15:12:00,
2013-07-04 11:27:00,85.8,74.0,30.22,WNW,298,0.0,2.0,68,0.00,,,0.00,weatherlink.com 1.10,2013-07-04 15:27:00,
2013-07-04 11:42:00,86.5,74.0,30.22,WNW,286,0.0,5.0,66,0.00,,,0.00,weatherlink.com 1.10,2013-07-04 15:42:00,
2013-07-04 11:58:00,87.0,74.0,30.22,SSW,212,0.0,2.0,66,0.00,,,0.00,weatherlink.com 1.10,2013-07-04 15:58:00,
2013-07-04 12:13:00,86.5,73.0,30.21,SW,214,0.0,5.0,65,0.00,,,0.00,weatherlink.com 1.10,2013-07-04 16:13:00,
2013-07-04 12:28:00,86.7,74.0,30.21,North,11,0.0,2.0,67,0.00,,,0.00,weatherlink.com 1.10,2013-07-04 16:28:00,
2013-07-04 12:43:00,88.2,75.0,30.21,NE,49,0.0,1.0,65,0.00,,,0.00,weatherlink.com 1.10,2013-07-04 16:43:00,
2013-07-04 12:58:00,88.7,76.0,30.20,SSE,155,0.0,3.0,66,0.00,,,0.00,weatherlink.com 1.10,2013-07-04 16:58:00,
2013-07-04 13:14:00,89.3,74.0,30.20,WSW,251,0.0,3.0,61,0.00,,,0.00,weatherlink.com 1.10,2013-07-04 17:14:00,
2013-07-04 13:30:00,88.7,74.0,30.20,SE,140,3.0,4.0,63,0.00,,,0.00,weatherlink.com 1.10,2013-07-04 17:30:00,
2013-07-04 13:45:00,89.2,75.0,30.19,ESE,108,0.0,5.0,64,0.00,,,0.00,weatherlink.com 1.10,2013-07-04 17:45:00,
2013-07-04 14:00:00,89.2,73.0,30.20,NNE,26,0.0,3.0,60,0.00,,,0.00,weatherlink.com 1.10,2013-07-04 18:00:00,
2013-07-04 14:15:00,89.0,73.0,30.19,SSW,201,0.0,2.0,59,0.00,,,0.00,weatherlink.com 1.10,2013-07-04 18:15:00,
2013-07-04 14:32:00,88.6,74.0,30.19,NE,43,2.0,3.0,63,0.00,,,0.00,weatherlink.com 1.10,2013-07-04 18:32:00,
2013-07-04 14:47:00,88.7,73.0,30.18,SSW,211,0.0,3.0,60,0.00,,,0.00,weatherlink.com 1.10,2013-07-04 18:47:00,
2013-07-04 15:02:00,89.8,74.0,30.18,North,349,0.0,3.0,59,0.00,,,0.00,weatherlink.com 1.10,2013-07-04 19:02:00,
2013-07-04 15:17:00,90.6,73.0,30.18,WNW,284,0.0,5.0,57,0.00,,,0.00,weatherlink.com 1.10,2013-07-04 19:17:00,
2013-07-04 15:33:00,90.4,73.0,30.17,WSW,257,0.0,2.0,56,0.00,,,0.00,weatherlink.com 1.10,2013-07-04 19:33:00,
2013-07-04 15:48:00,89.6,72.0,30.17,West,260,0.0,4.0,56,0.00,,,0.00,weatherlink.com 1.10,2013-07-04 19:48:00,
2013-07-04 16:04:00,89.4,72.0,30.16,South,169,0.0,5.0,57,0.00,,,0.00,weatherlink.com 1.10,2013-07-04 20:04:00,
2013-07-04 16:18:00,90.3,72.0,30.16,North,360,0.0,1.0,56,0.00,,,0.00,weatherlink.com 1.10,2013-07-04 20:18:00,
2013-07-04 16:33:00,89.5,72.0,30.16,SE,130,0.0,4.0,57,0.00,,,0.00,weatherlink.com 1.10,2013-07-04 20:33:00,
2013-07-04 16:50:00,87.7,73.0,30.15,SW,229,0.0,2.0,61,0.00,,,0.00,weatherlink.com 1.10,2013-07-04 20:50:00,
2013-07-04 17:05:00,86.3,72.0,30.15,WSW,250,1.0,3.0,63,0.00,,,0.00,weatherlink.com 1.10,2013-07-04 21:05:00,
2013-07-04 17:20:00,86.0,72.0,30.14,SE,138,0.0,2.0,64,0.00,,,0.00,weatherlink.com 1.10,2013-07-04 21:20:00,
2013-07-04 17:35:00,85.8,72.0,30.14,SW,232,0.0,2.0,64,0.00,,,0.00,weatherlink.com 1.10,2013-07-04 21:35:00,
2013-07-04 17:50:00,85.5,74.0,30.14,SW,233,0.0,1.0,68,0.00,,,0.00,weatherlink.com 1.10,2013-07-04 21:50:00,
2013-07-04 18:07:00,85.1,72.0,30.14,SW,225,0.0,9.0,66,0.00,,,0.00,weatherlink.com 1.10,2013-07-04 22:07:00,
2013-07-04 18:22:00,84.6,74.0,30.14,ESE,109,0.0,3.0,70,0.00,,,0.00,weatherlink.com 1.10,2013-07-04 22:22:00,
2013-07-04 18:37:00,84.1,74.0,30.14,WSW,257,0.0,4.0,71,0.00,,,0.00,weatherlink.com 1.10,2013-07-04 22:37:00,
2013-07-04 18:52:00,83.5,74.0,30.14,South,179,0.0,1.0,72,0.00,,,0.00,weatherlink.com 1.10,2013-07-04 22:52:00,
2013-07-04 19:07:00,82.8,73.0,30.14,SW,236,0.0,5.0,73,0.00,,,0.00,weatherlink.com 1.10,2013-07-04 23:07:00,
2013-07-04 19:22:00,82.2,72.0,30.15,ESE,106,0.0,2.0,71,0.00,,,0.00,weatherlink.com 1.10,2013-07-04 23:22:00,
2013-07-04 19:38:00,81.6,72.0,30.15,NNE,15,0.0,1.0,72,0.00,,,0.00,weatherlink.com 1.10,2013-07-04 23:38:00,
2013-07-04 19:54:00,80.8,72.0,30.15,NNE,15,0.0,0.0,74,0.00,,,0.00,weatherlink.com 1.10,2013-07-04 23:54:00,
2013-07-04 20:08:00,80.3,72.0,30.15,NNE,15,0.0,0.0,76,0.00,,,0.00,weatherlink.com 1.10,2013-07-05 00:08:00,
2013-07-04 20:23:00,79.7,72.0,30.15,NNE,15,0.0,0.0,78,0.00,,,0.00,weatherlink.com 1.10,2013-07-05 00:23:00,
2013-07-04 20:39:00,79.1,72.0,30.16,NW,306,0.0,0.0,79,0.00,,,0.00,weatherlink.com 1.10,2013-07-05 00:39:00,
2013-07-04 20:55:00,78.5,72.0,30.16,NW,306,0.0,0.0,80,0.00,,,0.00,weatherlink.com 1.10,2013-07-05 00:55:00,
2013-07-04 21:10:00,77.8,72.0,30.17,NW,306,0.0,1.0,81,0.00,,,0.00,weatherlink.com 1.10,2013-07-05 01:10:00,
2013-07-04 21:25:00,77.3,71.0,30.17,NW,306,0.0,0.0,81,0.00,,,0.00,weatherlink.com 1.10,2013-07-05 01:25:00,
2013-07-04 21:40:00,76.9,71.0,30.17,NW,306,0.0,0.0,82,0.00,,,0.00,weatherlink.com 1.10,2013-07-05 01:40:00,
2013-07-04 21:57:00,76.5,71.0,30.18,NW,306,0.0,0.0,83,0.00,,,0.00,weatherlink.com 1.10,2013-07-05 01:57:00,
2013-07-04 22:12:00,76.1,71.0,30.18,NW,306,0.0,0.0,83,0.00,,,0.00,weatherlink.com 1.10,2013-07-05 02:12:00,
2013-07-04 22:27:00,75.6,71.0,30.18,NW,306,0.0,0.0,84,0.00,,,0.00,weatherlink.com 1.10,2013-07-05 02:27:00,
2013-07-04 22:42:00,75.4,70.0,30.18,NW,306,0.0,0.0,83,0.00,,,0.00,weatherlink.com 1.10,2013-07-05 02:42:00,
2013-07-04 22:57:00,75.3,70.0,30.18,NW,306,0.0,0.0,83,0.00,,,0.00,weatherlink.com 1.10,2013-07-05 02:57:00,
2013-07-04 23:14:00,75.3,70.0,30.18,NW,306,0.0,0.0,83,0.00,,,0.00,weatherlink.com 1.10,2013-07-05 03:14:00,
2013-07-04 23:28:00,75.2,70.0,30.19,NW,306,0.0,0.0,83,0.00,,,0.00,weatherlink.com 1.10,2013-07-05 03:28:00,
2013-07-04 23:43:00,75.0,70.0,30.19,West,267,0.0,0.0,83,0.00,,,0.00,weatherlink.com 1.10,2013-07-05 03:43:00,
2013-07-04 23:59:00,74.9,69.0,30.19,West,267,0.0,0.0,83,0.00,,,0.00,weatherlink.com 1.10,2013-07-05 03:59:00,